Location: Recife
(8.0585°S, 34.8848°W)
Time: 09:45:21
(UTC-03:00)

S-56A Canister/Altair - Pass Details

Date: 17 April 2026
Orbit: 633 x 2484 km, 38.9° (Epoch: 20 May)

Event Time Altitude Azimuth Distance (km) Brightness Sun altitude
Rises 01:14:02 0° 252° (WSW) 3,399 - -61.6°
Reaches altitude 10° 01:16:29 10° 263° (W) 2,643 - -61.0°
Maximum altitude 01:22:05 32° 325° (NW) 1,899 - -59.6°
Drops below altitude 10° 01:30:00 10° 24° (NNE) 3,761 - -57.7°
Exits shadow 01:30:28 - 25° (NNE) 3,910 11.3 -57.5°
Sets 01:34:14 0° 32° (NNE) 5,079 12.0 -56.6°
